Flag for U.S.A. Weather past 2 weeks in Fairbanks, Alaska, U.S.A.

Now
30 °F

Overcast.


Feels Like: 25 °F
Forecast: 23 / 42 °F
Wind: 5 mph from East

Location: Wainwright U. S. Army Airfield

Current Time: Oct 1, 2014 at 5:02:23 AM

Latest Report: Oct 1, 2014 at 3:56 AM


Visibility: 10 mi

Pressure: 30.30 "Hg

Humidity: 85%

Dew point: 26 °F

Location of FairbanksLocation

Historic Weather in Fairbanks — Graph

°F

Fairbanks temperature yesterday

Maximum temperature yesterday: 37 °F (at 1:55 PM)
Minimum temperature yesterday: 34 °F (at 7:55 AM)
Average temperature yesterday: 36 °F

Past Weeks' High & Low Weather Summary

 TemperatureHumidityPressure
High79 °F (Sep 17, 12:55 PM)96% (Sep 24, 4:56 AM)30.30 "Hg (Sep 24, 4:56 AM)
Low24 °F (Sep 28, 6:56 AM)21% (Sep 17, 12:55 PM)29.03 "Hg (Sep 18, 5:55 PM)
Average41 °F70%29.74 "Hg
* Reported Sep 16 3:56 AM — Oct 1 3:56 AM, Fairbanks, Weather by CustomWeather, © 2014

Note: Actual official high and low records may vary slightly from our data, if they occured in-between our weather recording intervals... More about our weather records

Advertising

Fairbanks weather history for previous 24 hours

 ConditionsComfort  
Time TempWeatherWind HumidityBarometerVisibility
3:56 AM
Oct 1
30 °FOvercast.5 mph85%30.30 "Hg10 mi
2:56 AM28 °FClear.5 mph89%30.30 "Hg10 mi
1:56 AM29 °FClear.No wind85%30.30 "Hg10 mi
12:56 AM31 °FClear.No wind79%30.29 "Hg10 mi
11:56 PM
Sep 30
36 °FPassing clouds.7 mph67%30.27 "Hg10 mi
10:56 PM36 °FPassing clouds.6 mph70%30.27 "Hg10 mi
9:56 PM37 °FOvercast.7 mph70%30.27 "Hg10 mi
9:55 PM37 °FPassing clouds.7 mph70%30.27 "Hg7 mi
8:55 PM37 °FPassing clouds.9 mph70%30.25 "Hg7 mi
7:55 PM37 °FPartly sunny.10 mphN/A30.24 "Hg7 mi
6:55 PM37 °FPartly sunny.15 mphN/A30.22 "Hg7 mi
5:55 PM37 °FBroken clouds.10 mphN/A30.20 "Hg7 mi
4:55 PM37 °FScattered showers. Mostly cloudy.9 mphN/A30.19 "Hg7 mi
3:55 PM37 °FScattered showers. Broken clouds.14 mph93%30.18 "Hg7 mi
2:55 PM37 °FSprinkles. Broken clouds.21 mph87%30.16 "Hg7 mi
1:55 PM37 °FScattered showers. Mostly cloudy.16 mph87%30.15 "Hg7 mi
12:55 PM36 °FLight rain. Cloudy.14 mph93%30.13 "Hg7 mi
11:55 AM36 °FLight rain. Fog.13 mph93%30.12 "Hg6 mi
10:55 AM36 °FLight rain. Fog.13 mph87%30.10 "Hg4 mi
9:55 AM34 °FLight rain. Fog.13 mph93%30.10 "Hg5 mi
8:55 AM34 °FLight rain. Fog.13 mph87%30.09 "Hg2 mi
7:55 AM34 °FLight snow. Overcast.12 mph87%30.09 "Hg7 mi
6:55 AM36 °FSnow flurries. Overcast.15 mph75%30.07 "Hg7 mi
Weather by CustomWeather, © 2014

See weather overviewHow to use our weather pages